Time,TemperatureF,DewpointF,PressureIn,WindDirection,WindDirectionDegrees,WindSpeedMPH,WindSpeedGustMPH,Humidity,HourlyPrecipIn,Conditions,Clouds,dailyrainin,SoftwareType,DateUTC
2013-01-17 00:08:00,18.2,9.4,30.14,WSW,253,0.0,1.0,68,0.00,,,0.00,Wunderground v.1.15,2013-01-17 06:08:00,
2013-01-17 00:13:00,18.1,9.3,30.14,WSW,254,0.0,1.0,68,0.00,,,0.00,Wunderground v.1.15,2013-01-17 06:13:00,
2013-01-17 00:18:00,17.9,9.1,30.15,WSW,253,0.0,0.0,68,0.00,,,0.00,Wunderground v.1.15,2013-01-17 06:18:00,
2013-01-17 00:23:00,17.7,8.9,30.15,WSW,253,0.0,0.0,68,0.00,,,0.00,Wunderground v.1.15,2013-01-17 06:23:00,
2013-01-17 00:28:00,17.6,8.8,30.15,WSW,254,0.0,0.0,68,0.00,,,0.00,Wunderground v.1.15,2013-01-17 06:28:00,
2013-01-17 00:38:00,17.3,8.9,30.16,WSW,253,0.0,0.0,69,0.00,,,0.00,Wunderground v.1.15,2013-01-17 06:38:00,
2013-01-17 00:43:00,17.2,8.8,30.16,WSW,254,0.0,0.0,69,0.00,,,0.00,Wunderground v.1.15,2013-01-17 06:43:00,
2013-01-17 00:48:00,17.1,8.7,30.16,WSW,253,0.0,0.0,69,0.00,,,0.00,Wunderground v.1.15,2013-01-17 06:48:00,
2013-01-17 00:53:00,17.0,8.6,30.16,WSW,253,0.0,0.0,69,0.00,,,0.00,Wunderground v.1.15,2013-01-17 06:53:00,
2013-01-17 00:59:00,16.7,8.3,30.16,WSW,253,0.0,0.0,69,0.00,,,0.00,Wunderground v.1.15,2013-01-17 06:59:00,
2013-01-17 01:04:00,16.7,8.3,30.17,West,273,0.0,2.0,69,0.00,,,0.00,Wunderground v.1.15,2013-01-17 07:04:00,
2013-01-17 01:09:00,16.6,8.2,30.16,NW,305,0.0,1.0,69,0.00,,,0.00,Wunderground v.1.15,2013-01-17 07:09:00,
2013-01-17 01:14:00,16.4,8.0,30.17,WNW,303,0.0,1.0,69,0.00,,,0.00,Wunderground v.1.15,2013-01-17 07:14:00,
2013-01-17 01:24:00,16.2,7.8,30.18,West,259,0.0,0.0,69,0.00,,,0.00,Wunderground v.1.15,2013-01-17 07:24:00,
2013-01-17 01:34:00,15.9,7.5,30.19,West,259,0.0,0.0,69,0.00,,,0.00,Wunderground v.1.15,2013-01-17 07:34:00,
2013-01-17 01:39:00,15.8,9.6,30.19,WSW,240,0.0,0.0,76,0.00,,,0.00,Wunderground v.1.15,2013-01-17 07:39:00,
2013-01-17 01:44:00,15.7,7.6,30.20,WSW,240,0.0,1.0,70,0.00,,,0.00,Wunderground v.1.15,2013-01-17 07:44:00,
2013-01-17 01:49:00,15.6,7.6,30.20,WSW,243,0.0,0.0,70,0.00,,,0.00,Wunderground v.1.15,2013-01-17 07:49:00,
2013-01-17 01:54:00,15.5,7.1,30.20,WSW,242,0.0,0.0,69,0.00,,,0.00,Wunderground v.1.15,2013-01-17 07:54:00,
2013-01-17 01:59:00,15.3,7.3,30.21,WSW,242,0.0,0.0,70,0.00,,,0.00,Wunderground v.1.15,2013-01-17 07:59:00,
2013-01-17 02:04:00,15.2,7.2,30.21,NNE,30,0.0,0.0,70,0.00,,,0.00,Wunderground v.1.15,2013-01-17 08:04:00,
2013-01-17 02:09:00,15.0,7.0,30.21,WSW,252,0.0,0.0,70,0.00,,,0.00,Wunderground v.1.15,2013-01-17 08:09:00,
2013-01-17 02:19:00,14.9,6.9,30.21,WSW,252,0.0,1.0,70,0.00,,,0.00,Wunderground v.1.15,2013-01-17 08:19:00,
2013-01-17 02:24:00,14.9,6.9,30.21,WSW,252,0.0,1.0,70,0.00,,,0.00,Wunderground v.1.15,2013-01-17 08:24:00,
2013-01-17 02:29:00,14.7,6.4,30.21,West,265,0.0,0.0,69,0.00,,,0.00,Wunderground v.1.15,2013-01-17 08:29:00,
2013-01-17 02:34:00,14.6,6.6,30.22,West,266,0.0,0.0,70,0.00,,,0.00,Wunderground v.1.15,2013-01-17 08:34:00,
2013-01-17 02:39:00,14.5,6.5,30.22,West,266,0.0,0.0,70,0.00,,,0.00,Wunderground v.1.15,2013-01-17 08:39:00,
2013-01-17 02:49:00,14.4,6.1,30.22,West,261,0.0,2.0,69,0.00,,,0.00,Wunderground v.1.15,2013-01-17 08:49:00,
2013-01-17 02:59:00,14.3,6.3,30.23,West,260,0.0,0.0,70,0.00,,,0.00,Wunderground v.1.15,2013-01-17 08:59:00,
2013-01-17 03:04:00,14.1,6.1,30.23,West,261,0.0,0.0,70,0.00,,,0.00,Wunderground v.1.15,2013-01-17 09:04:00,
2013-01-17 03:09:00,14.0,6.0,30.23,West,261,0.0,0.0,70,0.00,,,0.00,Wunderground v.1.15,2013-01-17 09:09:00,
2013-01-17 03:14:00,13.9,5.6,30.23,West,263,0.0,0.0,69,0.00,,,0.00,Wunderground v.1.15,2013-01-17 09:14:00,
2013-01-17 03:19:00,13.7,5.4,30.23,West,263,0.0,0.0,69,0.00,,,0.00,Wunderground v.1.15,2013-01-17 09:19:00,
2013-01-17 03:29:00,13.3,5.0,30.23,West,263,0.0,2.0,69,0.00,,,0.00,Wunderground v.1.15,2013-01-17 09:29:00,
2013-01-17 03:34:00,13.2,5.2,30.23,West,263,0.0,2.0,70,0.00,,,0.00,Wunderground v.1.15,2013-01-17 09:34:00,
2013-01-17 03:39:00,13.0,5.0,30.23,West,263,0.0,0.0,70,0.00,,,0.00,Wunderground v.1.15,2013-01-17 09:39:00,
2013-01-17 03:49:00,12.6,4.7,30.23,West,263,0.0,1.0,70,0.00,,,0.00,Wunderground v.1.15,2013-01-17 09:49:00,
2013-01-17 03:54:00,12.5,4.6,30.23,West,263,0.0,1.0,70,0.00,,,0.00,Wunderground v.1.15,2013-01-17 09:54:00,
2013-01-17 03:59:00,12.3,4.7,30.23,West,263,0.0,0.0,71,0.00,,,0.00,Wunderground v.1.15,2013-01-17 09:59:00,
2013-01-17 04:04:00,12.2,4.6,30.23,West,263,0.0,1.0,71,0.00,,,0.00,Wunderground v.1.15,2013-01-17 10:04:00,
2013-01-17 04:09:00,12.1,4.5,30.23,West,263,0.0,0.0,71,0.00,,,0.00,Wunderground v.1.15,2013-01-17 10:09:00,
2013-01-17 04:14:00,12.0,4.4,30.24,West,263,0.0,0.0,71,0.00,,,0.00,Wunderground v.1.15,2013-01-17 10:14:00,
2013-01-17 04:19:00,11.9,4.3,30.24,West,263,0.0,0.0,71,0.00,,,0.00,Wunderground v.1.15,2013-01-17 10:19:00,
2013-01-17 04:24:00,11.9,4.3,30.24,West,263,0.0,0.0,71,0.00,,,0.00,Wunderground v.1.15,2013-01-17 10:24:00,
2013-01-17 04:34:00,11.6,4.0,30.25,West,262,0.0,0.0,71,0.00,,,0.00,Wunderground v.1.15,2013-01-17 10:34:00,
2013-01-17 04:39:00,11.5,3.9,30.25,West,262,0.0,0.0,71,0.00,,,0.00,Wunderground v.1.15,2013-01-17 10:39:00,
2013-01-17 04:44:00,11.4,3.8,30.25,West,262,0.0,0.0,71,0.00,,,0.00,Wunderground v.1.15,2013-01-17 10:44:00,
2013-01-17 04:49:00,11.2,3.6,30.26,West,262,0.0,0.0,71,0.00,,,0.00,Wunderground v.1.15,2013-01-17 10:49:00,
2013-01-17 04:58:00,11.2,3.3,30.26,West,261,0.0,0.0,70,0.00,,,0.00,Wunderground v.1.15,2013-01-17 10:58:00,
2013-01-17 05:03:00,11.1,3.2,30.26,West,262,0.0,0.0,70,0.00,,,0.00,Wunderground v.1.15,2013-01-17 11:03:00,
2013-01-17 05:08:00,11.0,3.1,30.26,West,262,0.0,0.0,70,0.00,,,0.00,Wunderground v.1.15,2013-01-17 11:08:00,
2013-01-17 05:18:00,10.6,3.0,30.27,West,261,0.0,0.0,71,0.00,,,0.00,Wunderground v.1.15,2013-01-17 11:18:00,
2013-01-17 05:23:00,10.5,2.9,30.27,West,262,0.0,0.0,71,0.00,,,0.00,Wunderground v.1.15,2013-01-17 11:23:00,
2013-01-17 05:28:00,10.4,2.5,30.27,West,262,0.0,0.0,70,0.00,,,0.00,Wunderground v.1.15,2013-01-17 11:28:00,
2013-01-17 05:33:00,10.2,2.7,30.28,West,261,0.0,0.0,71,0.00,,,0.00,Wunderground v.1.15,2013-01-17 11:33:00,
2013-01-17 05:38:00,10.1,2.6,30.28,West,262,0.0,0.0,71,0.00,,,0.00,Wunderground v.1.15,2013-01-17 11:38:00,
2013-01-17 05:43:00,9.9,2.4,30.28,West,262,0.0,0.0,71,0.00,,,0.00,Wunderground v.1.15,2013-01-17 11:43:00,
2013-01-17 05:48:00,9.9,2.4,30.28,West,262,0.0,0.0,71,0.00,,,0.00,Wunderground v.1.15,2013-01-17 11:48:00,
2013-01-17 05:58:00,9.6,2.1,30.28,West,261,0.0,0.0,71,0.00,,,0.00,Wunderground v.1.15,2013-01-17 11:58:00,
2013-01-17 06:03:00,9.6,2.1,30.29,West,262,0.0,0.0,71,0.00,,,0.00,Wunderground v.1.15,2013-01-17 12:03:00,
2013-01-17 06:08:00,9.4,1.9,30.29,West,262,0.0,0.0,71,0.00,,,0.00,Wunderground v.1.15,2013-01-17 12:08:00,
2013-01-17 06:13:00,9.2,2.0,30.30,West,262,0.0,0.0,72,0.00,,,0.00,Wunderground v.1.15,2013-01-17 12:13:00,
2013-01-17 06:18:00,9.1,1.9,30.30,West,262,0.0,0.0,72,0.00,,,0.00,Wunderground v.1.15,2013-01-17 12:18:00,
2013-01-17 06:23:00,9.1,1.9,30.30,West,262,0.0,0.0,72,0.00,,,0.00,Wunderground v.1.15,2013-01-17 12:23:00,
2013-01-17 06:33:00,8.7,1.5,30.30,West,261,0.0,0.0,72,0.00,,,0.00,Wunderground v.1.15,2013-01-17 12:33:00,
2013-01-17 06:43:00,8.5,1.6,30.31,West,261,0.0,0.0,73,0.00,,,0.00,Wunderground v.1.15,2013-01-17 12:43:00,
2013-01-17 06:48:00,8.3,1.4,30.31,West,262,0.0,0.0,73,0.00,,,0.00,Wunderground v.1.15,2013-01-17 12:48:00,
2013-01-17 06:59:00,8.1,1.5,30.31,West,262,0.0,0.0,74,0.00,,,0.00,Wunderground v.1.15,2013-01-17 12:59:00,
2013-01-17 07:09:00,8.1,1.5,30.32,West,261,0.0,0.0,74,0.00,,,0.00,Wunderground v.1.15,2013-01-17 13:09:00,
2013-01-17 07:19:00,7.9,1.0,30.32,West,262,0.0,0.0,73,0.00,,,0.00,Wunderground v.1.15,2013-01-17 13:19:00,
2013-01-17 07:24:00,8.0,1.1,30.32,West,262,0.0,0.0,73,0.00,,,0.00,Wunderground v.1.15,2013-01-17 13:24:00,
2013-01-17 07:29:00,8.0,1.1,30.33,West,261,0.0,0.0,73,0.00,,,0.00,Wunderground v.1.15,2013-01-17 13:29:00,
2013-01-17 07:34:00,8.0,1.1,30.33,West,262,0.0,0.0,73,0.00,,,0.00,Wunderground v.1.15,2013-01-17 13:34:00,
2013-01-17 07:39:00,7.9,1.0,30.33,West,262,0.0,0.0,73,0.00,,,0.00,Wunderground v.1.15,2013-01-17 13:39:00,
2013-01-17 07:44:00,7.9,1.3,30.33,West,261,0.0,0.0,74,0.00,,,0.00,Wunderground v.1.15,2013-01-17 13:44:00,
2013-01-17 07:49:00,7.9,1.3,30.34,West,262,0.0,0.0,74,0.00,,,0.00,Wunderground v.1.15,2013-01-17 13:49:00,
2013-01-17 07:59:00,8.3,1.7,30.34,West,262,0.0,0.0,74,0.00,,,0.00,Wunderground v.1.15,2013-01-17 13:59:00,
2013-01-17 08:09:00,8.9,1.7,30.34,West,262,0.0,0.0,72,0.00,,,0.00,Wunderground v.1.15,2013-01-17 14:09:00,
2013-01-17 08:14:00,9.1,1.9,30.34,West,262,0.0,0.0,72,0.00,,,0.00,Wunderground v.1.15,2013-01-17 14:14:00,
2013-01-17 08:19:00,9.5,2.3,30.35,West,262,0.0,1.0,72,0.00,,,0.00,Wunderground v.1.15,2013-01-17 14:19:00,
2013-01-17 08:29:00,9.9,1.8,30.35,West,277,1.0,1.0,69,0.00,,,0.00,Wunderground v.1.15,2013-01-17 14:29:00,
2013-01-17 08:39:00,10.0,1.5,30.36,West,269,1.0,1.0,68,0.00,,,0.00,Wunderground v.1.15,2013-01-17 14:39:00,
2013-01-17 08:49:00,10.1,1.6,30.36,West,270,0.0,0.0,68,0.00,,,0.00,Wunderground v.1.15,2013-01-17 14:49:00,
2013-01-17 08:59:00,10.4,1.6,30.37,West,269,0.0,1.0,67,0.00,,,0.00,Wunderground v.1.15,2013-01-17 14:59:00,
2013-01-17 09:04:00,10.4,1.6,30.37,West,270,0.0,1.0,67,0.00,,,0.00,Wunderground v.1.15,2013-01-17 15:04:00,
2013-01-17 09:09:00,10.4,1.6,30.37,West,269,0.0,0.0,67,0.00,,,0.00,Wunderground v.1.15,2013-01-17 15:09:00,
2013-01-17 09:14:00,11.1,1.9,30.37,West,271,0.0,2.0,66,0.00,,,0.00,Wunderground v.1.15,2013-01-17 15:14:00,
2013-01-17 09:19:00,11.6,1.4,30.37,West,281,0.0,3.0,63,0.00,,,0.00,Wunderground v.1.15,2013-01-17 15:19:00,
2013-01-17 09:24:00,12.0,1.5,30.38,West,268,1.0,3.0,62,0.00,,,0.00,Wunderground v.1.15,2013-01-17 15:24:00,
2013-01-17 09:34:00,12.2,0.2,30.38,North,355,2.0,3.0,58,0.00,,,0.00,Wunderground v.1.15,2013-01-17 15:34:00,
2013-01-17 09:39:00,12.4,0.8,30.38,West,276,1.0,1.0,59,0.00,,,0.00,Wunderground v.1.15,2013-01-17 15:39:00,
2013-01-17 09:49:00,12.7,0.7,30.38,WNW,292,1.0,1.0,58,0.00,,,0.00,Wunderground v.1.15,2013-01-17 15:49:00,
2013-01-17 09:54:00,12.9,0.9,30.39,West,263,1.0,2.0,58,0.00,,,0.00,Wunderground v.1.15,2013-01-17 15:54:00,
2013-01-17 09:59:00,13.1,0.7,30.39,WSW,237,1.0,2.0,57,0.00,,,0.00,Wunderground v.1.15,2013-01-17 15:59:00,
2013-01-17 10:09:00,13.1,0.7,30.39,West,268,1.0,1.0,57,0.00,,,0.00,Wunderground v.1.15,2013-01-17 16:09:00,
2013-01-17 10:14:00,13.2,0.8,30.39,West,274,1.0,4.0,57,0.00,,,0.00,Wunderground v.1.15,2013-01-17 16:14:00,
2013-01-17 10:19:00,13.3,1.3,30.39,West,274,1.0,1.0,58,0.00,,,0.00,Wunderground v.1.15,2013-01-17 16:19:00,
2013-01-17 10:24:00,13.5,1.4,30.39,West,281,0.0,1.0,58,0.00,,,0.00,Wunderground v.1.15,2013-01-17 16:24:00,
2013-01-17 10:29:00,13.4,0.6,30.39,NW,321,0.0,0.0,56,0.00,,,0.00,Wunderground v.1.15,2013-01-17 16:29:00,
2013-01-17 10:34:00,13.4,1.0,30.39,WNW,283,1.0,1.0,57,0.00,,,0.00,Wunderground v.1.15,2013-01-17 16:34:00,
2013-01-17 10:39:00,13.9,0.7,30.38,WNW,299,0.0,0.0,55,0.00,,,0.00,Wunderground v.1.15,2013-01-17 16:39:00,
2013-01-17 10:49:00,14.1,0.5,30.38,WSW,249,1.0,1.0,54,0.00,,,0.00,Wunderground v.1.15,2013-01-17 16:49:00,
2013-01-17 10:54:00,14.0,0.8,30.39,West,279,1.0,2.0,55,0.00,,,0.00,Wunderground v.1.15,2013-01-17 16:54:00,
2013-01-17 10:59:00,14.1,1.3,30.39,WNW,284,1.0,1.0,56,0.00,,,0.00,Wunderground v.1.15,2013-01-17 16:59:00,
2013-01-17 11:09:00,14.4,1.2,30.38,WNW,287,1.0,1.0,55,0.00,,,0.00,Wunderground v.1.15,2013-01-17 17:09:00,
2013-01-17 11:14:00,14.5,1.6,30.38,NW,322,1.0,1.0,56,0.00,,,0.00,Wunderground v.1.15,2013-01-17 17:14:00,
2013-01-17 11:23:00,14.6,1.3,30.37,WNW,288,0.0,1.0,55,0.00,,,0.00,Wunderground v.1.15,2013-01-17 17:23:00,
2013-01-17 11:33:00,14.4,0.8,30.36,WNW,295,1.0,1.0,54,0.00,,,0.00,Wunderground v.1.15,2013-01-17 17:33:00,
2013-01-17 11:48:00,14.9,1.2,30.36,West,279,1.0,1.0,54,0.00,,,0.00,Wunderground v.1.15,2013-01-17 17:48:00,
2013-01-17 11:58:00,15.7,2.0,30.35,WNW,285,1.0,1.0,54,0.00,,,0.00,Wunderground v.1.15,2013-01-17 17:58:00,
2013-01-17 12:08:00,16.0,2.3,30.35,West,275,1.0,4.0,54,0.00,,,0.00,Wunderground v.1.15,2013-01-17 18:08:00,
2013-01-17 12:18:00,16.2,2.4,30.36,West,279,2.0,3.0,54,0.00,,,0.00,Wunderground v.1.15,2013-01-17 18:18:00,
2013-01-17 12:23:00,16.7,2.9,30.35,West,274,2.0,3.0,54,0.00,,,0.00,Wunderground v.1.15,2013-01-17 18:23:00,
2013-01-17 12:33:00,17.0,3.2,30.34,NNW,327,2.0,3.0,54,0.00,,,0.00,Wunderground v.1.15,2013-01-17 18:33:00,
2013-01-17 12:38:00,17.0,3.2,30.34,West,266,2.0,2.0,54,0.00,,,0.00,Wunderground v.1.15,2013-01-17 18:38:00,
2013-01-17 12:43:00,17.4,4.0,30.35,West,271,1.0,2.0,55,0.00,,,0.00,Wunderground v.1.15,2013-01-17 18:43:00,
2013-01-17 12:48:00,18.0,3.7,30.35,West,268,1.0,1.0,53,0.00,,,0.00,Wunderground v.1.15,2013-01-17 18:48:00,
2013-01-17 12:53:00,18.3,4.0,30.35,West,280,2.0,2.0,53,0.00,,,0.00,Wunderground v.1.15,2013-01-17 18:53:00,
2013-01-17 12:59:00,18.3,4.4,30.36,West,281,2.0,2.0,54,0.00,,,0.00,Wunderground v.1.15,2013-01-17 18:59:00,
2013-01-17 13:04:00,18.2,3.9,30.36,WSW,250,2.0,4.0,53,0.00,,,0.00,Wunderground v.1.15,2013-01-17 19:04:00,
2013-01-17 13:09:00,17.9,4.0,30.35,NW,307,2.0,2.0,54,0.00,,,0.00,Wunderground v.1.15,2013-01-17 19:09:00,
2013-01-17 13:14:00,17.8,4.3,30.35,NW,306,2.0,2.0,55,0.00,,,0.00,Wunderground v.1.15,2013-01-17 19:14:00,
2013-01-17 13:19:00,17.5,3.7,30.35,WNW,289,2.0,2.0,54,0.00,,,0.00,Wunderground v.1.15,2013-01-17 19:19:00,
2013-01-17 13:24:00,17.3,4.3,30.35,West,277,2.0,2.0,56,0.00,,,0.00,Wunderground v.1.15,2013-01-17 19:24:00,
2013-01-17 13:29:00,17.5,4.5,30.35,West,259,1.0,3.0,56,0.00,,,0.00,Wunderground v.1.15,2013-01-17 19:29:00,
2013-01-17 13:39:00,18.0,4.5,30.34,West,281,1.0,1.0,55,0.00,,,0.00,Wunderground v.1.15,2013-01-17 19:39:00,
2013-01-17 13:49:00,18.0,4.5,30.35,WNW,295,2.0,2.0,55,0.00,,,0.00,Wunderground v.1.15,2013-01-17 19:49:00,
2013-01-17 13:54:00,18.5,5.4,30.34,WSW,254,1.0,4.0,56,0.00,,,0.00,Wunderground v.1.15,2013-01-17 19:54:00,
2013-01-17 13:59:00,18.8,5.3,30.35,West,277,1.0,1.0,55,0.00,,,0.00,Wunderground v.1.15,2013-01-17 19:59:00,
2013-01-17 14:09:00,18.8,5.7,30.35,West,277,1.0,4.0,56,0.00,,,0.00,Wunderground v.1.15,2013-01-17 20:09:00,
2013-01-17 14:14:00,18.1,5.0,30.35,West,277,2.0,4.0,56,0.00,,,0.00,Wunderground v.1.15,2013-01-17 20:14:00,
2013-01-17 14:19:00,17.8,5.5,30.35,WNW,282,1.0,1.0,58,0.00,,,0.00,Wunderground v.1.15,2013-01-17 20:19:00,
2013-01-17 14:29:00,17.7,5.4,30.34,NW,311,1.0,1.0,58,0.00,,,0.00,Wunderground v.1.15,2013-01-17 20:29:00,
2013-01-17 14:34:00,17.8,5.9,30.35,West,281,1.0,4.0,59,0.00,,,0.00,Wunderground v.1.15,2013-01-17 20:34:00,
2013-01-17 14:39:00,17.7,6.2,30.35,WNW,293,1.0,1.0,60,0.00,,,0.00,Wunderground v.1.15,2013-01-17 20:39:00,
2013-01-17 14:44:00,17.5,5.6,30.35,West,263,1.0,1.0,59,0.00,,,0.00,Wunderground v.1.15,2013-01-17 20:44:00,
2013-01-17 14:49:00,17.4,6.2,30.35,West,263,1.0,1.0,61,0.00,,,0.00,Wunderground v.1.15,2013-01-17 20:49:00,
2013-01-17 14:54:00,17.5,6.7,30.35,NW,326,0.0,2.0,62,0.00,,,0.00,Wunderground v.1.15,2013-01-17 20:54:00,
2013-01-17 14:59:00,17.5,6.3,30.35,NW,317,1.0,1.0,61,0.00,,,0.00,Wunderground v.1.15,2013-01-17 20:59:00,
2013-01-17 15:09:00,17.2,6.4,30.35,WNW,290,1.0,1.0,62,0.00,,,0.00,Wunderground v.1.15,2013-01-17 21:09:00,
2013-01-17 15:19:00,17.3,6.5,30.35,NNW,330,0.0,0.0,62,0.00,,,0.00,Wunderground v.1.15,2013-01-17 21:19:00,
2013-01-17 15:24:00,17.3,6.8,30.35,NNW,330,0.0,0.0,63,0.00,,,0.00,Wunderground v.1.15,2013-01-17 21:24:00,
2013-01-17 15:29:00,17.2,6.4,30.35,NNW,330,0.0,0.0,62,0.00,,,0.00,Wunderground v.1.15,2013-01-17 21:29:00,
2013-01-17 15:34:00,17.0,6.2,30.35,NNW,330,0.0,1.0,62,0.00,,,0.00,Wunderground v.1.15,2013-01-17 21:34:00,
2013-01-17 15:39:00,16.9,6.1,30.35,NW,317,0.0,1.0,62,0.00,,,0.00,Wunderground v.1.15,2013-01-17 21:39:00,
2013-01-17 15:44:00,16.7,6.3,30.35,NW,311,0.0,2.0,63,0.00,,,0.00,Wunderground v.1.15,2013-01-17 21:44:00,
2013-01-17 15:54:00,16.4,6.3,30.35,WSW,252,0.0,0.0,64,0.00,,,0.00,Wunderground v.1.15,2013-01-17 21:54:00,
2013-01-17 15:59:00,16.3,6.2,30.35,West,279,0.0,0.0,64,0.00,,,0.00,Wunderground v.1.15,2013-01-17 21:59:00,
2013-01-17 16:08:00,16.1,6.1,30.36,West,265,1.0,1.0,64,0.00,,,0.00,Wunderground v.1.15,2013-01-17 22:08:00,
2013-01-17 16:13:00,16.1,6.4,30.36,West,265,0.0,1.0,65,0.00,,,0.00,Wunderground v.1.15,2013-01-17 22:13:00,
2013-01-17 16:18:00,16.0,6.3,30.36,West,265,0.0,0.0,65,0.00,,,0.00,Wunderground v.1.15,2013-01-17 22:18:00,
2013-01-17 16:24:00,15.9,6.2,30.36,West,265,0.0,0.0,65,0.00,,,0.00,Wunderground v.1.15,2013-01-17 22:24:00,
2013-01-17 16:29:00,15.8,6.4,30.36,West,265,0.0,0.0,66,0.00,,,0.00,Wunderground v.1.15,2013-01-17 22:29:00,
2013-01-17 16:34:00,15.7,6.3,30.36,West,265,0.0,0.0,66,0.00,,,0.00,Wunderground v.1.15,2013-01-17 22:34:00,
2013-01-17 16:39:00,15.6,6.3,30.37,West,265,0.0,0.0,66,0.00,,,0.00,Wunderground v.1.15,2013-01-17 22:39:00,
2013-01-17 16:49:00,15.4,6.4,30.37,West,265,0.0,0.0,67,0.00,,,0.00,Wunderground v.1.15,2013-01-17 22:49:00,
2013-01-17 16:54:00,15.2,6.2,30.37,West,265,0.0,0.0,67,0.00,,,0.00,Wunderground v.1.15,2013-01-17 22:54:00,
2013-01-17 16:59:00,15.0,6.3,30.38,NNE,24,0.0,0.0,68,0.00,,,0.00,Wunderground v.1.15,2013-01-17 22:59:00,
2013-01-17 17:04:00,14.9,6.2,30.38,NNE,19,0.0,0.0,68,0.00,,,0.00,Wunderground v.1.15,2013-01-17 23:04:00,
2013-01-17 17:13:00,14.5,6.2,30.38,NNE,19,0.0,0.0,69,0.00,,,0.00,Wunderground v.1.15,2013-01-17 23:13:00,
2013-01-17 17:18:00,14.3,6.0,30.38,NNE,19,0.0,0.0,69,0.00,,,0.00,Wunderground v.1.15,2013-01-17 23:18:00,
2013-01-17 17:23:00,14.0,6.0,30.38,NNE,19,0.0,0.0,70,0.00,,,0.00,Wunderground v.1.15,2013-01-17 23:23:00,
2013-01-17 17:33:00,13.2,5.6,30.38,NNE,19,0.0,0.0,71,0.00,,,0.00,Wunderground v.1.15,2013-01-17 23:33:00,
2013-01-17 17:38:00,12.9,5.6,30.38,NNE,19,0.0,0.0,72,0.00,,,0.00,Wunderground v.1.15,2013-01-17 23:38:00,
2013-01-17 17:48:00,12.5,5.2,30.38,NNE,19,0.0,0.0,72,0.00,,,0.00,Wunderground v.1.15,2013-01-17 23:48:00,
2013-01-17 17:53:00,12.3,5.3,30.38,NNE,19,0.0,0.0,73,0.00,,,0.00,Wunderground v.1.15,2013-01-17 23:53:00,
2013-01-17 18:00:00,12.1,5.1,30.38,NNE,19,0.0,0.0,73,0.00,,,0.00,Wunderground v.1.15,2013-01-18 00:00:00,
2013-01-17 18:05:00,11.9,5.2,30.39,NNE,19,0.0,0.0,74,0.00,,,0.00,Wunderground v.1.15,2013-01-18 00:05:00,
2013-01-17 18:10:00,11.7,5.0,30.39,NNE,19,0.0,0.0,74,0.00,,,0.00,Wunderground v.1.15,2013-01-18 00:10:00,
2013-01-17 18:20:00,11.3,4.9,30.39,NNE,19,0.0,0.0,75,0.00,,,0.00,Wunderground v.1.15,2013-01-18 00:20:00,
2013-01-17 18:25:00,11.0,4.6,30.39,NNE,19,0.0,0.0,75,0.00,,,0.00,Wunderground v.1.15,2013-01-18 00:25:00,
2013-01-17 18:30:00,10.6,4.2,30.39,NNE,19,0.0,0.0,75,0.00,,,0.00,Wunderground v.1.15,2013-01-18 00:30:00,
2013-01-17 18:40:00,9.6,3.8,30.40,NNE,19,0.0,0.0,77,0.00,,,0.00,Wunderground v.1.15,2013-01-18 00:40:00,
2013-01-17 18:45:00,9.3,3.8,30.40,NNE,19,0.0,0.0,78,0.00,,,0.00,Wunderground v.1.15,2013-01-18 00:45:00,
2013-01-17 18:50:00,9.0,3.5,30.40,NNE,19,0.0,0.0,78,0.00,,,0.00,Wunderground v.1.15,2013-01-18 00:50:00,
2013-01-17 18:55:00,8.6,3.4,30.40,NNE,19,0.0,0.0,79,0.00,,,0.00,Wunderground v.1.15,2013-01-18 00:55:00,
2013-01-17 19:00:00,8.2,3.0,30.40,NNE,19,0.0,0.0,79,0.00,,,0.00,Wunderground v.1.15,2013-01-18 01:00:00,
2013-01-17 19:05:00,8.0,3.1,30.40,NNE,19,0.0,0.0,80,0.00,,,0.00,Wunderground v.1.15,2013-01-18 01:05:00,
2013-01-17 19:10:00,7.7,2.8,30.40,NNE,19,0.0,0.0,80,0.00,,,0.00,Wunderground v.1.15,2013-01-18 01:10:00,
2013-01-17 19:20:00,7.1,2.5,30.40,NNE,19,0.0,0.0,81,0.00,,,0.00,Wunderground v.1.15,2013-01-18 01:20:00,
2013-01-17 19:25:00,6.9,2.3,30.41,NNE,19,0.0,0.0,81,0.00,,,0.00,Wunderground v.1.15,2013-01-18 01:25:00,
2013-01-17 19:35:00,6.7,2.1,30.41,NNE,19,0.0,0.0,81,0.00,,,0.00,Wunderground v.1.15,2013-01-18 01:35:00,
2013-01-17 19:40:00,6.1,1.5,30.41,NNE,19,0.0,0.0,81,0.00,,,0.00,Wunderground v.1.15,2013-01-18 01:40:00,
2013-01-17 19:45:00,5.5,0.9,30.41,NNE,19,0.0,0.0,81,0.00,,,0.00,Wunderground v.1.15,2013-01-18 01:45:00,
2013-01-17 19:50:00,5.0,0.4,30.41,NNE,19,0.0,0.0,81,0.00,,,0.00,Wunderground v.1.15,2013-01-18 01:50:00,
2013-01-17 19:55:00,4.7,0.4,30.42,NNE,19,0.0,0.0,82,0.00,,,0.00,Wunderground v.1.15,2013-01-18 01:55:00,
2013-01-17 20:00:00,4.7,0.7,30.42,NNE,19,0.0,0.0,83,0.00,,,0.00,Wunderground v.1.15,2013-01-18 02:00:00,
2013-01-17 20:05:00,4.5,0.5,30.42,NNE,19,0.0,0.0,83,0.00,,,0.00,Wunderground v.1.15,2013-01-18 02:05:00,
2013-01-17 20:15:00,4.4,0.6,30.42,NNE,19,0.0,0.0,84,0.00,,,0.00,Wunderground v.1.15,2013-01-18 02:15:00,
2013-01-17 20:20:00,4.5,0.7,30.42,NNE,19,0.0,0.0,84,0.00,,,0.00,Wunderground v.1.15,2013-01-18 02:20:00,
2013-01-17 20:25:00,4.6,0.8,30.42,NNE,19,0.0,0.0,84,0.00,,,0.00,Wunderground v.1.15,2013-01-18 02:25:00,
2013-01-17 20:30:00,4.7,1.2,30.42,NNE,19,0.0,0.0,85,0.00,,,0.00,Wunderground v.1.15,2013-01-18 02:30:00,
2013-01-17 20:35:00,4.6,0.8,30.42,NNE,19,0.0,0.0,84,0.00,,,0.00,Wunderground v.1.15,2013-01-18 02:35:00,
2013-01-17 20:40:00,4.3,0.5,30.42,NNE,19,0.0,0.0,84,0.00,,,0.00,Wunderground v.1.15,2013-01-18 02:40:00,
2013-01-17 20:50:00,3.5,-0.2,30.43,NNE,19,0.0,0.0,84,0.00,,,0.00,Wunderground v.1.15,2013-01-18 02:50:00,
2013-01-17 20:59:00,2.8,-0.9,30.43,NNE,19,0.0,0.0,84,0.00,,,0.00,Wunderground v.1.15,2013-01-18 02:59:00,
2013-01-17 21:05:00,2.6,-1.1,30.44,NNE,19,0.0,0.0,84,0.00,,,0.00,Wunderground v.1.15,2013-01-18 03:05:00,
2013-01-17 21:10:00,2.5,-1.2,30.43,NNE,19,0.0,0.0,84,0.00,,,0.00,Wunderground v.1.15,2013-01-18 03:10:00,
2013-01-17 21:15:00,2.5,-1.0,30.44,NNE,19,0.0,0.0,85,0.00,,,0.00,Wunderground v.1.15,2013-01-18 03:15:00,
2013-01-17 21:20:00,2.4,-1.1,30.43,NNE,19,0.0,0.0,85,0.00,,,0.00,Wunderground v.1.15,2013-01-18 03:20:00,
2013-01-17 21:30:00,2.1,-1.4,30.43,NNE,19,0.0,0.0,85,0.00,,,0.00,Wunderground v.1.15,2013-01-18 03:30:00,
2013-01-17 21:39:00,1.8,-1.9,30.43,NNE,19,0.0,0.0,84,0.00,,,0.00,Wunderground v.1.15,2013-01-18 03:39:00,
2013-01-17 21:44:00,1.5,-2.2,30.43,NNE,19,0.0,0.0,84,0.00,,,0.00,Wunderground v.1.15,2013-01-18 03:44:00,
2013-01-17 21:49:00,1.4,-2.1,30.42,NNE,19,0.0,0.0,85,0.00,,,0.00,Wunderground v.1.15,2013-01-18 03:49:00,
2013-01-17 21:54:00,1.3,-2.2,30.43,NNE,19,0.0,0.0,85,0.00,,,0.00,Wunderground v.1.15,2013-01-18 03:54:00,
2013-01-17 21:59:00,1.2,-2.3,30.43,NNE,19,0.0,0.0,85,0.00,,,0.00,Wunderground v.1.15,2013-01-18 03:59:00,
2013-01-17 22:05:00,1.1,-2.4,30.43,NNE,19,0.0,0.0,85,0.00,,,0.00,Wunderground v.1.15,2013-01-18 04:05:00,
2013-01-17 22:10:00,1.1,-2.4,30.42,NNE,19,0.0,0.0,85,0.00,,,0.00,Wunderground v.1.15,2013-01-18 04:10:00,
2013-01-17 22:15:00,1.0,-2.5,30.42,NNE,19,0.0,0.0,85,0.00,,,0.00,Wunderground v.1.15,2013-01-18 04:15:00,
2013-01-17 22:25:00,0.9,-2.6,30.43,NNE,19,0.0,0.0,85,0.00,,,0.00,Wunderground v.1.15,2013-01-18 04:25:00,
2013-01-17 22:30:00,0.9,-2.6,30.43,NNE,19,0.0,0.0,85,0.00,,,0.00,Wunderground v.1.15,2013-01-18 04:30:00,
2013-01-17 22:35:00,0.9,-2.6,30.43,NNE,19,0.0,0.0,85,0.00,,,0.00,Wunderground v.1.15,2013-01-18 04:35:00,
2013-01-17 22:40:00,0.7,-3.0,30.43,NNE,19,0.0,0.0,84,0.00,,,0.00,Wunderground v.1.15,2013-01-18 04:40:00,
2013-01-17 22:45:00,0.5,-3.2,30.43,NNE,19,0.0,0.0,84,0.00,,,0.00,Wunderground v.1.15,2013-01-18 04:45:00,
2013-01-17 22:50:00,0.7,-2.7,30.43,NNE,19,0.0,0.0,85,0.00,,,0.00,Wunderground v.1.15,2013-01-18 04:50:00,
2013-01-17 23:00:00,1.0,-2.5,30.43,NNE,19,0.0,0.0,85,0.00,,,0.00,Wunderground v.1.15,2013-01-18 05:00:00,
2013-01-17 23:04:00,1.1,-2.4,30.43,NNE,19,0.0,0.0,85,0.00,,,0.00,Wunderground v.1.15,2013-01-18 05:04:00,
2013-01-17 23:09:00,0.9,-2.8,30.43,NNE,19,0.0,0.0,84,0.00,,,0.00,Wunderground v.1.15,2013-01-18 05:09:00,
2013-01-17 23:15:00,0.8,-2.7,30.43,NNE,19,0.0,0.0,85,0.00,,,0.00,Wunderground v.1.15,2013-01-18 05:15:00,
2013-01-17 23:20:00,0.9,-2.6,30.44,NNE,19,0.0,0.0,85,0.00,,,0.00,Wunderground v.1.15,2013-01-18 05:20:00,
2013-01-17 23:25:00,1.0,-2.5,30.44,NNE,19,0.0,0.0,85,0.00,,,0.00,Wunderground v.1.15,2013-01-18 05:25:00,
2013-01-17 23:30:00,1.1,-2.4,30.44,NNE,19,0.0,0.0,85,0.00,,,0.00,Wunderground v.1.15,2013-01-18 05:30:00,
2013-01-17 23:40:00,1.0,-2.5,30.44,NNE,19,0.0,0.0,85,0.00,,,0.00,Wunderground v.1.15,2013-01-18 05:40:00,
2013-01-17 23:45:00,0.9,-2.8,30.44,NNE,19,0.0,0.0,84,0.00,,,0.00,Wunderground v.1.15,2013-01-18 05:45:00,
2013-01-17 23:55:00,0.5,-3.2,30.44,NNE,19,0.0,0.0,84,0.00,,,0.00,Wunderground v.1.15,2013-01-18 05:55:00,